Time,TemperatureF,DewpointF,PressureIn,WindDirection,WindDirectionDegrees,WindSpeedMPH,WindSpeedGustMPH,Humidity,HourlyPrecipIn,Conditions,Clouds,dailyrainin,SolarRadiationWatts/m^2,SoftwareType,DateUTC
2013-02-25 00:03:00,44.6,43.0,29.92,East,91,1.2,8.1,94,0.00,RA,,0.00,0.0,WeatherDisplay:10.37,2013-02-24 23:03:00,
2013-02-25 00:08:00,44.6,43.0,29.92,SE,125,4.4,9.0,94,0.00,RA,,0.00,0.0,WeatherDisplay:10.37,2013-02-24 23:08:00,
2013-02-25 00:13:00,44.6,43.0,29.92,SSE,148,6.9,11.5,94,0.00,BKN,,0.00,0.0,WeatherDisplay:10.37,2013-02-24 23:13:00,
2013-02-25 00:18:00,44.6,43.0,29.93,ESE,113,3.3,10.4,94,0.00,BKN,,0.00,0.0,WeatherDisplay:10.37,2013-02-24 23:18:00,
2013-02-25 00:23:00,44.5,42.9,29.93,SE,124,2.7,5.8,94,0.00,BKN,,0.00,0.0,WeatherDisplay:10.37,2013-02-24 23:23:00,
2013-02-25 00:28:00,44.5,42.9,29.92,East,89,7.7,16.1,94,0.00,BKN,,0.00,0.0,WeatherDisplay:10.37,2013-02-24 23:28:00,
2013-02-25 00:33:00,44.5,42.9,29.93,SE,137,3.9,11.5,94,0.00,BKN,,0.00,0.0,WeatherDisplay:10.37,2013-02-24 23:33:00,
2013-02-25 00:38:00,44.5,42.9,29.92,ESE,122,5.7,8.1,94,0.00,BKN,,0.00,0.0,WeatherDisplay:10.37,2013-02-24 23:38:00,
2013-02-25 00:43:00,44.5,42.9,29.92,SE,142,5.2,11.5,94,0.00,BKN,,0.00,0.0,WeatherDisplay:10.37,2013-02-24 23:43:00,
2013-02-25 00:48:00,44.6,43.0,29.92,ESE,115,6.5,11.5,94,0.00,BKN,,0.00,0.0,WeatherDisplay:10.37,2013-02-24 23:48:00,
2013-02-25 00:53:00,44.6,43.0,29.93,ESE,121,6.7,11.5,94,0.00,BKN,,0.00,0.0,WeatherDisplay:10.37,2013-02-24 23:53:00,
2013-02-25 00:58:00,44.6,43.0,29.93,East,101,7.0,11.5,94,0.00,BKN,,0.00,0.0,WeatherDisplay:10.37,2013-02-24 23:58:00,
2013-02-25 01:03:00,44.6,43.0,29.93,SSE,147,3.3,11.5,94,0.00,BKN,,0.00,0.0,WeatherDisplay:10.37,2013-02-25 00:03:00,
2013-02-25 01:08:00,44.6,43.0,29.93,East,92,4.2,10.4,94,0.00,BKN,,0.00,0.0,WeatherDisplay:10.37,2013-02-25 00:08:00,
2013-02-25 01:13:00,44.6,43.0,29.93,ESE,103,2.2,9.2,94,0.00,BKN,,0.00,0.0,WeatherDisplay:10.37,2013-02-25 00:13:00,
2013-02-25 01:18:00,44.6,43.0,29.94,SE,140,3.4,7.0,94,0.00,BKN,,0.00,0.0,WeatherDisplay:10.37,2013-02-25 00:18:00,
2013-02-25 01:23:00,44.6,43.0,29.94,ESE,121,7.5,10.4,94,0.00,BKN,,0.00,0.0,WeatherDisplay:10.37,2013-02-25 00:23:00,
2013-02-25 01:28:00,44.5,42.9,29.94,SSE,159,3.7,7.0,94,0.00,BKN,,0.00,0.0,WeatherDisplay:10.37,2013-02-25 00:28:00,
2013-02-25 01:33:00,44.5,42.9,29.94,ESE,115,5.0,8.0,94,0.00,BKN,,0.00,0.0,WeatherDisplay:10.37,2013-02-25 00:33:00,
2013-02-25 01:38:00,44.5,42.9,29.94,ESE,115,5.3,10.4,94,0.00,BKN,,0.00,0.0,WeatherDisplay:10.37,2013-02-25 00:38:00,
2013-02-25 01:43:00,44.4,42.8,29.94,South,170,6.2,8.0,94,0.00,BKN,,0.00,0.0,WeatherDisplay:10.37,2013-02-25 00:43:00,
2013-02-25 01:48:00,44.4,42.8,29.94,SE,130,8.1,11.5,94,0.00,BKN,,0.00,0.0,WeatherDisplay:10.37,2013-02-25 00:48:00,
2013-02-25 01:53:00,44.4,42.8,29.94,East,97,3.1,8.1,94,0.00,BKN,,0.00,0.0,WeatherDisplay:10.37,2013-02-25 00:53:00,
2013-02-25 01:58:00,44.3,42.7,29.94,SE,126,6.0,12.0,94,0.00,BKN,,0.00,0.0,WeatherDisplay:10.37,2013-02-25 00:58:00,
2013-02-25 02:03:00,44.3,42.7,29.94,SE,146,5.8,9.2,94,0.00,BKN,,0.00,0.0,WeatherDisplay:10.37,2013-02-25 01:03:00,
2013-02-25 02:08:00,44.3,42.7,29.94,SE,126,7.2,12.0,94,0.00,BKN,,0.00,0.0,WeatherDisplay:10.37,2013-02-25 01:08:00,
2013-02-25 02:13:00,44.3,42.7,29.94,SE,139,4.6,10.4,94,0.00,BKN,,0.00,0.0,WeatherDisplay:10.37,2013-02-25 01:13:00,
2013-02-25 02:18:00,44.2,42.6,29.94,ESE,113,5.6,9.2,94,0.00,BKN,,0.00,0.0,WeatherDisplay:10.37,2013-02-25 01:18:00,
2013-02-25 02:23:00,44.2,42.6,29.94,SSE,153,4.9,7.0,94,0.00,BKN,,0.00,0.0,WeatherDisplay:10.37,2013-02-25 01:23:00,
2013-02-25 02:28:00,44.2,42.6,29.94,SE,140,6.4,11.5,94,0.00,BKN,,0.00,0.0,WeatherDisplay:10.37,2013-02-25 01:28:00,
2013-02-25 02:33:00,44.2,42.6,29.95,SE,144,7.1,11.5,94,0.00,BKN,,0.00,0.0,WeatherDisplay:10.37,2013-02-25 01:33:00,
2013-02-25 02:38:00,44.2,42.3,29.94,SE,126,8.9,15.0,93,0.00,BKN,,0.00,0.0,WeatherDisplay:10.37,2013-02-25 01:38:00,
2013-02-25 02:43:00,44.3,42.4,29.95,SE,138,5.3,10.0,93,0.00,BKN,,0.00,0.0,WeatherDisplay:10.37,2013-02-25 01:43:00,
2013-02-25 02:48:00,44.3,42.4,29.95,SSE,157,5.6,9.2,93,0.00,BKN,,0.00,0.0,WeatherDisplay:10.37,2013-02-25 01:48:00,
2013-02-25 02:53:00,44.4,42.5,29.95,South,174,4.8,10.4,93,0.00,BKN,,0.00,0.0,WeatherDisplay:10.37,2013-02-25 01:53:00,
2013-02-25 02:58:00,44.4,42.2,29.95,SE,139,5.4,12.7,92,0.00,BKN,,0.00,0.0,WeatherDisplay:10.37,2013-02-25 01:58:00,
2013-02-25 03:03:00,44.4,42.2,29.95,SE,131,6.0,10.0,92,0.00,BKN,,0.00,0.0,WeatherDisplay:10.37,2013-02-25 02:03:00,
2013-02-25 03:08:00,44.5,42.3,29.95,SSE,159,4.1,12.7,92,0.00,BKN,,0.00,0.0,WeatherDisplay:10.37,2013-02-25 02:08:00,
2013-02-25 03:13:00,44.5,42.3,29.95,SE,136,5.9,9.2,92,0.00,BKN,,0.00,0.0,WeatherDisplay:10.37,2013-02-25 02:13:00,
2013-02-25 03:18:00,44.6,42.1,29.95,SE,127,7.9,12.0,91,0.00,BKN,,0.00,0.0,WeatherDisplay:10.37,2013-02-25 02:18:00,
2013-02-25 03:23:00,44.6,42.1,29.95,SE,130,6.0,11.5,91,0.00,BKN,,0.00,0.0,WeatherDisplay:10.37,2013-02-25 02:23:00,
2013-02-25 03:28:00,44.6,42.1,29.95,SSE,153,4.4,8.1,91,0.00,BKN,,0.00,0.0,WeatherDisplay:10.37,2013-02-25 02:28:00,
2013-02-25 03:33:00,44.6,42.1,29.96,SE,128,6.5,12.0,91,0.00,BKN,,0.00,0.0,WeatherDisplay:10.37,2013-02-25 02:33:00,
2013-02-25 03:38:00,44.6,42.1,29.96,SE,138,3.6,6.9,91,0.00,BKN,,0.00,0.0,WeatherDisplay:10.37,2013-02-25 02:38:00,
2013-02-25 03:43:00,44.6,42.1,29.96,East,99,2.8,9.2,91,0.00,BKN,,0.00,0.0,WeatherDisplay:10.37,2013-02-25 02:43:00,
2013-02-25 03:48:00,44.6,42.1,29.96,SSE,150,4.5,10.4,91,0.00,BKN,,0.00,0.0,WeatherDisplay:10.37,2013-02-25 02:48:00,
2013-02-25 03:53:00,44.5,42.0,29.96,SE,129,2.7,6.9,91,0.00,BKN,,0.00,0.0,WeatherDisplay:10.37,2013-02-25 02:53:00,
2013-02-25 03:58:00,44.5,42.0,29.96,SSE,164,2.3,12.7,91,0.00,BKN,,0.00,0.0,WeatherDisplay:10.37,2013-02-25 02:58:00,
2013-02-25 04:03:00,44.5,42.0,29.97,SSE,155,6.9,10.4,91,0.00,BKN,,0.00,0.0,WeatherDisplay:10.37,2013-02-25 03:03:00,
2013-02-25 04:08:00,44.5,42.0,29.97,SE,136,5.4,10.4,91,0.00,BKN,,0.00,0.0,WeatherDisplay:10.37,2013-02-25 03:08:00,
2013-02-25 04:13:00,44.5,42.0,29.97,SSE,154,4.8,7.0,91,0.00,BKN,,0.00,0.0,WeatherDisplay:10.37,2013-02-25 03:13:00,
2013-02-25 04:18:00,44.4,41.9,29.97,SE,132,7.3,11.5,91,0.00,BKN,,0.00,0.0,WeatherDisplay:10.37,2013-02-25 03:18:00,
2013-02-25 04:23:00,44.4,41.9,29.97,SSE,152,5.8,11.5,91,0.00,BKN,,0.00,0.0,WeatherDisplay:10.37,2013-02-25 03:23:00,
2013-02-25 04:28:00,44.5,42.0,29.97,SSE,155,3.1,9.2,91,0.00,BKN,,0.00,0.0,WeatherDisplay:10.37,2013-02-25 03:28:00,
2013-02-25 04:33:00,44.5,42.0,29.97,SE,125,4.0,9.2,91,0.00,BKN,,0.00,0.0,WeatherDisplay:10.37,2013-02-25 03:33:00,
2013-02-25 04:38:00,44.5,41.7,29.97,SE,139,5.4,10.4,90,0.00,BKN,,0.00,0.0,WeatherDisplay:10.37,2013-02-25 03:38:00,
2013-02-25 04:43:00,44.5,41.7,29.97,SSE,147,3.7,8.1,90,0.00,BKN,,0.00,0.0,WeatherDisplay:10.37,2013-02-25 03:43:00,
2013-02-25 04:48:00,44.5,42.0,29.98,SE,134,5.6,9.2,91,0.00,BKN,,0.00,0.0,WeatherDisplay:10.37,2013-02-25 03:48:00,
2013-02-25 04:53:00,44.5,42.0,29.98,ESE,107,5.1,10.4,91,0.00,BKN,,0.00,0.0,WeatherDisplay:10.37,2013-02-25 03:53:00,
2013-02-25 04:58:00,44.5,41.7,29.98,SE,142,5.7,10.4,90,0.00,BKN,,0.00,0.0,WeatherDisplay:10.37,2013-02-25 03:58:00,
2013-02-25 05:03:00,44.4,41.7,29.98,SE,140,6.8,10.0,90,0.00,BKN,,0.00,0.0,WeatherDisplay:10.37,2013-02-25 04:03:00,
2013-02-25 05:08:00,44.4,41.7,29.98,SSE,153,5.2,10.4,90,0.00,BKN,,0.00,0.0,WeatherDisplay:10.37,2013-02-25 04:08:00,
2013-02-25 05:13:00,44.4,41.9,29.98,ESE,123,5.5,11.5,91,0.00,BKN,,0.00,0.0,WeatherDisplay:10.37,2013-02-25 04:13:00,
2013-02-25 05:18:00,44.3,41.8,29.98,SE,134,8.3,12.7,91,0.00,BKN,,0.00,0.0,WeatherDisplay:10.37,2013-02-25 04:18:00,
2013-02-25 05:23:00,44.3,41.8,29.98,SE,132,4.1,10.4,91,0.00,BKN,,0.00,0.0,WeatherDisplay:10.37,2013-02-25 04:23:00,
2013-02-25 05:28:00,44.3,41.8,29.99,SE,130,7.0,10.4,91,0.00,BKN,,0.00,0.0,WeatherDisplay:10.37,2013-02-25 04:28:00,
2013-02-25 05:33:00,44.3,41.8,29.99,SSE,167,0.9,10.4,91,0.00,BKN,,0.00,0.0,WeatherDisplay:10.37,2013-02-25 04:33:00,
2013-02-25 05:38:00,44.3,41.8,29.99,SE,144,4.9,8.1,91,0.00,BKN,,0.00,0.0,WeatherDisplay:10.37,2013-02-25 04:38:00,
2013-02-25 05:43:00,44.3,41.8,29.99,SE,144,1.6,5.8,91,0.00,BKN,,0.00,0.0,WeatherDisplay:10.37,2013-02-25 04:43:00,
2013-02-25 05:48:00,44.3,41.8,29.99,SE,140,5.8,9.0,91,0.00,BKN,,0.00,0.0,WeatherDisplay:10.37,2013-02-25 04:48:00,
2013-02-25 05:53:00,44.2,41.7,29.99,ESE,122,6.9,9.0,91,0.00,BKN,,0.00,0.0,WeatherDisplay:10.37,2013-02-25 04:53:00,
2013-02-25 05:58:00,44.2,41.7,30.00,ESE,107,3.9,9.2,91,0.00,BKN,,0.00,0.0,WeatherDisplay:10.37,2013-02-25 04:58:00,
2013-02-25 06:00:00,44.2,41.7,30.00,ESE,117,3.0,9.0,91,0.00,BKN,,0.00,0.0,WeatherDisplay:10.37,2013-02-25 05:00:00,
2013-02-25 06:03:00,44.1,41.6,29.99,SE,126,5.4,7.0,91,0.00,BKN,,0.00,0.0,WeatherDisplay:10.37,2013-02-25 05:03:00,
2013-02-25 06:08:00,44.1,41.6,30.00,East,96,6.0,10.4,91,0.00,BKN,,0.00,0.0,WeatherDisplay:10.37,2013-02-25 05:08:00,
2013-02-25 06:13:00,44.0,41.5,30.00,ESE,106,4.6,6.9,91,0.00,BKN,,0.00,0.0,WeatherDisplay:10.37,2013-02-25 05:13:00,
2013-02-25 06:15:00,44.0,41.5,30.00,SE,127,3.0,10.0,91,0.00,BKN,,0.00,0.0,WeatherDisplay:10.37,2013-02-25 05:15:00,
2013-02-25 06:20:00,43.9,41.4,30.00,SE,138,2.0,9.0,91,0.00,BKN,,0.00,0.0,WeatherDisplay:10.37,2013-02-25 05:20:00,
2013-02-25 06:25:00,43.9,41.4,30.00,SSE,154,1.7,6.9,91,0.00,BKN,,0.00,0.0,WeatherDisplay:10.37,2013-02-25 05:25:00,
2013-02-25 06:30:00,43.8,41.3,30.00,SE,124,2.9,10.4,91,0.00,BKN,,0.00,0.0,WeatherDisplay:10.37,2013-02-25 05:30:00,
2013-02-25 06:35:00,43.8,41.6,30.00,SE,128,2.7,8.1,92,0.00,BKN,,0.00,0.0,WeatherDisplay:10.37,2013-02-25 05:35:00,
2013-02-25 06:40:00,43.7,41.5,30.00,ESE,112,5.0,8.1,92,0.00,BKN,,0.00,0.0,WeatherDisplay:10.37,2013-02-25 05:40:00,
2013-02-25 06:45:00,43.7,41.5,30.00,SSE,148,3.3,10.4,92,0.00,BKN,,0.00,5.0,WeatherDisplay:10.37,2013-02-25 05:45:00,
2013-02-25 06:50:00,43.7,41.5,30.01,ESE,106,3.5,6.0,92,0.00,BKN,,0.00,5.0,WeatherDisplay:10.37,2013-02-25 05:50:00,
2013-02-25 06:55:00,43.7,41.5,30.01,ESE,115,4.9,9.2,92,0.00,BKN,,0.00,5.0,WeatherDisplay:10.37,2013-02-25 05:55:00,
2013-02-25 07:00:00,43.7,41.2,30.01,ESE,121,3.3,8.0,91,0.00,BKN,,0.00,11.0,WeatherDisplay:10.37,2013-02-25 06:00:00,
2013-02-25 07:05:00,43.7,41.2,30.02,SSE,147,5.6,9.2,91,0.00,BKN,,0.00,12.0,WeatherDisplay:10.37,2013-02-25 06:05:00,
2013-02-25 07:10:00,43.7,41.2,30.02,SE,143,4.9,8.0,91,0.00,BKN,,0.00,12.0,WeatherDisplay:10.37,2013-02-25 06:10:00,
2013-02-25 07:15:00,43.7,41.2,30.02,SSE,150,2.6,6.9,91,0.00,BKN,,0.00,16.0,WeatherDisplay:10.37,2013-02-25 06:15:00,
2013-02-25 07:20:00,43.7,41.5,30.02,East,96,4.2,9.2,92,0.00,BKN,,0.00,18.0,WeatherDisplay:10.37,2013-02-25 06:20:00,
2013-02-25 07:25:00,43.7,41.2,30.02,ESE,105,3.1,5.8,91,0.00,BKN,,0.00,23.0,WeatherDisplay:10.37,2013-02-25 06:25:00,
2013-02-25 07:30:00,43.7,41.2,30.02,East,99,3.0,8.1,91,0.00,BKN,,0.00,28.0,WeatherDisplay:10.37,2013-02-25 06:30:00,
2013-02-25 07:35:00,43.8,41.3,30.03,SE,140,2.1,5.8,91,0.00,BKN,,0.00,32.0,WeatherDisplay:10.37,2013-02-25 06:35:00,
2013-02-25 07:40:00,43.8,41.3,30.03,SE,128,2.6,4.6,91,0.00,BKN,,0.00,47.0,WeatherDisplay:10.37,2013-02-25 06:40:00,
2013-02-25 07:45:00,43.8,41.6,30.03,ESE,109,3.3,5.0,92,0.00,BKN,,0.00,40.0,WeatherDisplay:10.37,2013-02-25 06:45:00,
2013-02-25 07:50:00,43.8,41.6,30.03,ESE,109,2.0,5.0,92,0.00,BKN,,0.00,28.0,WeatherDisplay:10.37,2013-02-25 06:50:00,
2013-02-25 07:55:00,43.8,41.6,30.03,ESE,121,2.9,5.0,92,0.00,BKN,,0.00,26.0,WeatherDisplay:10.37,2013-02-25 06:55:00,
2013-02-25 08:00:00,43.9,41.4,30.03,SSE,163,1.6,3.5,91,0.00,BKN,,0.00,54.0,WeatherDisplay:10.37,2013-02-25 07:00:00,
2013-02-25 08:05:00,43.9,41.4,30.04,SE,140,4.9,7.0,91,0.00,BKN,,0.00,69.0,WeatherDisplay:10.37,2013-02-25 07:05:00,
2013-02-25 08:10:00,43.9,41.4,30.04,ESE,106,0.5,3.5,91,0.00,BKN,,0.00,51.0,WeatherDisplay:10.37,2013-02-25 07:10:00,
2013-02-25 08:15:00,44.0,41.5,30.04,SE,134,3.8,8.1,91,0.00,BKN,,0.00,51.0,WeatherDisplay:10.37,2013-02-25 07:15:00,
2013-02-25 08:20:00,44.1,41.6,30.04,SE,136,0.3,3.5,91,0.00,BKN,,0.00,63.0,WeatherDisplay:10.37,2013-02-25 07:20:00,
2013-02-25 08:25:00,44.1,41.6,30.04,ESE,123,5.7,10.4,91,0.00,BKN,,0.00,77.0,WeatherDisplay:10.37,2013-02-25 07:25:00,
2013-02-25 08:30:00,44.2,41.7,30.04,ESE,108,2.1,4.0,91,0.00,BKN,,0.00,69.0,WeatherDisplay:10.37,2013-02-25 07:30:00,
2013-02-25 08:35:00,44.3,41.8,30.04,SE,132,3.1,4.6,91,0.00,BKN,,0.00,79.0,WeatherDisplay:10.37,2013-02-25 07:35:00,
2013-02-25 08:40:00,44.4,41.9,30.05,ESE,107,4.9,8.0,91,0.00,BKN,,0.00,56.0,WeatherDisplay:10.37,2013-02-25 07:40:00,
2013-02-25 08:45:00,44.4,41.9,30.05,East,94,6.4,9.2,91,0.00,BKN,,0.00,83.0,WeatherDisplay:10.37,2013-02-25 07:45:00,
2013-02-25 08:50:00,44.4,41.9,30.05,ESE,115,4.9,10.0,91,0.00,BKN,,0.00,37.0,WeatherDisplay:10.37,2013-02-25 07:50:00,
2013-02-25 08:55:00,44.3,41.8,30.05,ESE,122,1.4,8.1,91,0.00,BKN,,0.00,54.0,WeatherDisplay:10.37,2013-02-25 07:55:00,
2013-02-25 09:00:00,44.3,41.8,30.05,ESE,123,3.9,7.0,91,0.00,BKN,,0.00,63.0,WeatherDisplay:10.37,2013-02-25 08:00:00,
2013-02-25 09:05:00,44.2,41.7,30.05,SSE,153,2.7,8.1,91,0.00,BKN,,0.00,74.0,WeatherDisplay:10.37,2013-02-25 08:05:00,
2013-02-25 09:10:00,44.2,41.7,30.05,SSE,161,1.8,8.1,91,0.00,BKN,,0.00,88.0,WeatherDisplay:10.37,2013-02-25 08:10:00,
2013-02-25 09:15:00,44.3,41.8,30.05,SE,134,3.6,7.0,91,0.00,BKN,,0.00,88.0,WeatherDisplay:10.37,2013-02-25 08:15:00,
2013-02-25 09:20:00,44.3,41.8,30.05,SSE,153,3.6,6.9,91,0.00,BKN,,0.00,111.0,WeatherDisplay:10.37,2013-02-25 08:20:00,
2013-02-25 09:25:00,44.4,41.9,30.06,ESE,108,3.0,5.0,91,0.00,BKN,,0.00,114.0,WeatherDisplay:10.37,2013-02-25 08:25:00,
2013-02-25 09:30:00,44.6,42.1,30.06,ESE,117,2.1,4.0,91,0.00,BKN,,0.00,113.0,WeatherDisplay:10.37,2013-02-25 08:30:00,
2013-02-25 09:35:00,44.7,42.2,30.06,SE,131,3.8,5.8,91,0.00,BKN,,0.00,127.0,WeatherDisplay:10.37,2013-02-25 08:35:00,
2013-02-25 09:40:00,44.8,42.3,30.06,ESE,109,3.9,7.0,91,0.00,BKN,,0.00,130.0,WeatherDisplay:10.37,2013-02-25 08:40:00,
2013-02-25 09:45:00,45.0,42.2,30.06,SE,135,5.4,9.2,90,0.00,BKN,,0.00,139.0,WeatherDisplay:10.37,2013-02-25 08:45:00,
2013-02-25 09:50:00,45.1,42.3,30.06,SSE,149,3.2,5.8,90,0.00,BKN,,0.00,160.0,WeatherDisplay:10.37,2013-02-25 08:50:00,
2013-02-25 09:55:00,45.2,42.2,30.07,ESE,113,1.6,8.1,89,0.00,BKN,,0.00,160.0,WeatherDisplay:10.37,2013-02-25 08:55:00,
2013-02-25 10:00:00,45.4,42.3,30.07,ESE,107,2.1,3.5,89,0.00,SCT,,0.00,185.0,WeatherDisplay:10.37,2013-02-25 09:00:00,
2013-02-25 10:05:00,45.6,42.5,30.07,SE,145,3.2,5.0,89,0.00,SCT,,0.00,163.0,WeatherDisplay:10.37,2013-02-25 09:05:00,
2013-02-25 10:10:00,45.8,42.4,30.07,ESE,111,3.5,8.0,88,0.00,BKN,,0.00,127.0,WeatherDisplay:10.37,2013-02-25 09:10:00,
2013-02-25 10:15:00,45.8,42.2,30.07,ESE,103,2.5,9.2,87,0.00,BKN,,0.00,114.0,WeatherDisplay:10.37,2013-02-25 09:15:00,
2013-02-25 10:20:00,45.9,42.2,30.08,ESE,109,2.4,4.6,87,0.00,BKN,,0.00,93.0,WeatherDisplay:10.37,2013-02-25 09:20:00,
2013-02-25 10:25:00,45.9,42.2,30.08,East,92,3.3,5.0,87,0.00,BKN,,0.00,70.0,WeatherDisplay:10.37,2013-02-25 09:25:00,
2013-02-25 10:30:00,45.9,42.2,30.08,SSE,150,3.4,6.9,87,0.00,BKN,,0.00,60.0,WeatherDisplay:10.37,2013-02-25 09:30:00,
2013-02-25 10:35:00,46.0,42.3,30.08,ESE,121,2.6,4.6,87,0.00,BKN,,0.00,56.0,WeatherDisplay:10.37,2013-02-25 09:35:00,
2013-02-25 10:40:00,46.0,42.3,30.08,SE,125,3.7,5.0,87,0.00,BKN,,0.00,56.0,WeatherDisplay:10.37,2013-02-25 09:40:00,
2013-02-25 10:45:00,46.0,42.3,30.09,ESE,117,3.8,7.0,87,0.00,BKN,,0.00,69.0,WeatherDisplay:10.37,2013-02-25 09:45:00,
2013-02-25 10:50:00,46.0,42.3,30.09,East,100,1.9,4.6,87,0.00,BKN,,0.00,67.0,WeatherDisplay:10.37,2013-02-25 09:50:00,
2013-02-25 10:55:00,46.0,42.6,30.09,ESE,116,4.1,7.0,88,0.00,BKN,,0.00,76.0,WeatherDisplay:10.37,2013-02-25 09:55:00,
2013-02-25 11:00:00,46.1,42.7,30.09,ESE,117,2.0,3.5,88,0.00,BKN,,0.00,86.0,WeatherDisplay:10.37,2013-02-25 10:00:00,
2013-02-25 11:05:00,46.1,42.7,30.09,ESE,120,3.9,7.0,88,0.00,BKN,,0.00,113.0,WeatherDisplay:10.37,2013-02-25 10:05:00,
2013-02-25 11:10:00,46.2,42.5,30.09,ESE,113,4.6,8.1,87,0.00,BKN,,0.00,142.0,WeatherDisplay:10.37,2013-02-25 10:10:00,
2013-02-25 11:15:00,46.2,42.5,30.09,ESE,108,3.5,7.0,87,0.00,BKN,,0.00,151.0,WeatherDisplay:10.37,2013-02-25 10:15:00,
2013-02-25 11:20:00,46.4,42.7,30.09,SSE,148,4.4,6.9,87,0.00,BKN,,0.00,211.0,WeatherDisplay:10.37,2013-02-25 10:20:00,
2013-02-25 11:25:00,46.7,42.7,30.09,ESE,123,5.0,8.0,86,0.00,SCT,,0.00,350.0,WeatherDisplay:10.37,2013-02-25 10:25:00,
2013-02-25 11:30:00,47.1,43.1,30.09,East,81,2.6,6.0,86,0.00,SCT,,0.00,169.0,WeatherDisplay:10.37,2013-02-25 10:30:00,
2013-02-25 11:35:00,47.3,43.0,30.09,NE,40,3.5,9.2,85,0.00,SCT,,0.00,288.0,WeatherDisplay:10.37,2013-02-25 10:35:00,
2013-02-25 11:40:00,47.4,43.1,30.09,ESE,121,3.4,10.4,85,0.00,SCT,,0.00,225.0,WeatherDisplay:10.37,2013-02-25 10:40:00,
2013-02-25 11:45:00,47.5,43.2,30.09,NNE,22,1.8,11.5,85,0.00,SCT,,0.00,244.0,WeatherDisplay:10.37,2013-02-25 10:45:00,
2013-02-25 11:50:00,47.6,43.3,30.09,ENE,74,5.8,9.0,85,0.00,SCT,,0.00,429.0,WeatherDisplay:10.37,2013-02-25 10:50:00,
2013-02-25 11:55:00,47.9,43.3,30.09,East,94,4.6,8.0,84,0.00,SCT,,0.00,239.0,WeatherDisplay:10.37,2013-02-25 10:55:00,
2013-02-25 12:00:00,48.0,43.1,30.09,SE,132,6.1,11.0,83,0.00,SCT,,0.00,160.0,WeatherDisplay:10.37,2013-02-25 11:00:00,
2013-02-25 12:05:00,48.0,43.1,30.09,East,95,9.8,14.0,83,0.00,BKN,,0.00,200.0,WeatherDisplay:10.37,2013-02-25 11:05:00,
2013-02-25 12:10:00,47.9,43.3,30.09,ENE,71,7.5,12.0,84,0.00,BKN,,0.00,181.0,WeatherDisplay:10.37,2013-02-25 11:10:00,
2013-02-25 12:15:00,47.9,43.0,30.10,ESE,106,4.5,10.4,83,0.00,BKN,,0.00,200.0,WeatherDisplay:10.37,2013-02-25 11:15:00,
2013-02-25 12:20:00,47.9,43.0,30.10,ESE,117,4.6,8.1,83,0.00,BKN,,0.00,172.0,WeatherDisplay:10.37,2013-02-25 11:20:00,
2013-02-25 12:25:00,47.9,43.3,30.10,SE,127,3.2,7.0,84,0.00,BKN,,0.00,153.0,WeatherDisplay:10.37,2013-02-25 11:25:00,
2013-02-25 12:30:00,48.1,43.5,30.10,SE,146,4.7,9.2,84,0.00,BKN,,0.00,149.0,WeatherDisplay:10.37,2013-02-25 11:30:00,
2013-02-25 12:35:00,48.1,43.2,30.10,SE,136,6.5,10.4,83,0.00,BKN,,0.00,139.0,WeatherDisplay:10.37,2013-02-25 11:35:00,
2013-02-25 12:40:00,48.1,43.2,30.10,SE,134,2.8,4.6,83,0.00,BKN,,0.00,146.0,WeatherDisplay:10.37,2013-02-25 11:40:00,
2013-02-25 12:46:00,48.1,43.2,30.10,ESE,121,5.1,10.4,83,0.00,BKN,,0.00,111.0,WeatherDisplay:10.37,2013-02-25 11:46:00,
2013-02-25 12:51:00,48.1,43.2,30.10,SSE,156,4.8,9.2,83,0.00,BKN,,0.00,123.0,WeatherDisplay:10.37,2013-02-25 11:51:00,
2013-02-25 12:56:00,48.0,43.4,30.10,SSE,161,4.6,10.0,84,0.00,BKN,,0.00,139.0,WeatherDisplay:10.37,2013-02-25 11:56:00,
2013-02-25 13:01:00,48.0,43.4,30.10,SE,139,0.5,9.2,84,0.00,BKN,,0.00,123.0,WeatherDisplay:10.37,2013-02-25 12:01:00,
2013-02-25 13:06:00,48.0,43.4,30.10,SSE,155,2.6,4.0,84,0.00,BKN,,0.00,121.0,WeatherDisplay:10.37,2013-02-25 12:06:00,
2013-02-25 13:11:00,48.1,43.5,30.10,SE,142,6.2,9.0,84,0.00,BKN,,0.00,116.0,WeatherDisplay:10.37,2013-02-25 12:11:00,
2013-02-25 13:16:00,48.0,43.1,30.10,East,94,4.3,9.2,83,0.00,BKN,,0.00,114.0,WeatherDisplay:10.37,2013-02-25 12:16:00,
2013-02-25 13:21:00,48.0,43.4,30.10,SE,142,4.2,6.0,84,0.00,BKN,,0.00,132.0,WeatherDisplay:10.37,2013-02-25 12:21:00,
2013-02-25 13:26:00,48.0,43.1,30.10,ESE,123,5.7,9.0,83,0.00,BKN,,0.00,113.0,WeatherDisplay:10.37,2013-02-25 12:26:00,
2013-02-25 13:31:00,48.0,43.1,30.10,ESE,102,4.1,8.0,83,0.00,BKN,,0.00,130.0,WeatherDisplay:10.37,2013-02-25 12:31:00,
2013-02-25 13:36:00,48.0,43.1,30.10,East,98,3.3,6.0,83,0.00,BKN,,0.00,176.0,WeatherDisplay:10.37,2013-02-25 12:36:00,
2013-02-25 13:41:00,48.2,43.3,30.10,SE,144,4.0,6.9,83,0.00,BKN,,0.00,146.0,WeatherDisplay:10.37,2013-02-25 12:41:00,
2013-02-25 13:46:00,48.3,43.4,30.10,ESE,105,4.1,8.1,83,0.00,BKN,,0.00,116.0,WeatherDisplay:10.37,2013-02-25 12:46:00,
2013-02-25 13:52:00,48.5,43.6,30.10,SE,134,5.3,8.0,83,0.00,BKN,,0.00,100.0,WeatherDisplay:10.37,2013-02-25 12:52:00,
2013-02-25 13:57:00,48.6,43.4,30.10,SE,131,2.0,4.0,82,0.00,BKN,,0.00,104.0,WeatherDisplay:10.37,2013-02-25 12:57:00,
2013-02-25 14:02:00,48.7,43.8,30.10,East,86,1.9,7.0,83,0.00,BKN,,0.00,90.0,WeatherDisplay:10.37,2013-02-25 13:02:00,
2013-02-25 14:07:00,48.8,43.5,30.10,ESE,103,1.9,4.6,82,0.00,BKN,,0.00,83.0,WeatherDisplay:10.37,2013-02-25 13:07:00,
2013-02-25 14:13:00,48.8,43.9,30.10,ESE,111,1.8,4.6,83,0.00,BKN,,0.00,83.0,WeatherDisplay:10.37,2013-02-25 13:13:00,
2013-02-25 14:18:00,48.9,44.0,30.10,East,80,5.9,9.0,83,0.00,BKN,,0.00,63.0,WeatherDisplay:10.37,2013-02-25 13:18:00,
2013-02-25 14:23:00,48.9,43.6,30.10,ESE,108,1.8,5.8,82,0.00,BKN,,0.00,62.0,WeatherDisplay:10.37,2013-02-25 13:23:00,
2013-02-25 14:28:00,48.9,44.0,30.10,ENE,74,5.1,6.9,83,0.00,BKN,,0.00,47.0,WeatherDisplay:10.37,2013-02-25 13:28:00,
2013-02-25 14:33:00,48.8,44.2,30.10,ENE,69,5.1,9.2,84,0.00,BKN,,0.00,39.0,WeatherDisplay:10.37,2013-02-25 13:33:00,
2013-02-25 14:38:00,48.7,44.1,30.10,ESE,107,2.7,5.0,84,0.00,BKN,,0.00,33.0,WeatherDisplay:10.37,2013-02-25 13:38:00,
2013-02-25 14:43:00,48.6,44.3,30.10,ESE,103,0.2,2.3,85,0.00,BKN,,0.00,37.0,WeatherDisplay:10.37,2013-02-25 13:43:00,
2013-02-25 14:48:00,48.6,44.3,30.10,East,92,1.6,3.5,85,0.00,BKN,,0.00,47.0,WeatherDisplay:10.37,2013-02-25 13:48:00,
2013-02-25 14:53:00,48.4,44.4,30.10,ENE,73,1.8,6.9,86,0.00,BKN,,0.00,67.0,WeatherDisplay:10.37,2013-02-25 13:53:00,
2013-02-25 14:58:00,48.4,44.4,30.10,ESE,103,2.2,6.0,86,0.00,BKN,,0.00,67.0,WeatherDisplay:10.37,2013-02-25 13:58:00,
2013-02-25 15:04:00,48.4,44.7,30.10,East,92,0.1,3.5,87,0.00,BKN,,0.00,83.0,WeatherDisplay:10.37,2013-02-25 14:04:00,
2013-02-25 15:11:00,48.5,44.8,30.10,ENE,76,1.5,4.0,87,0.00,BKN,,0.00,100.0,WeatherDisplay:10.37,2013-02-25 14:11:00,
2013-02-25 15:17:00,48.6,44.9,30.10,East,85,1.7,3.5,87,0.00,BKN,,0.00,91.0,WeatherDisplay:10.37,2013-02-25 14:17:00,
2013-02-25 15:22:00,48.7,45.0,30.10,East,89,2.9,6.0,87,0.00,BKN,,0.00,95.0,WeatherDisplay:10.37,2013-02-25 14:22:00,
2013-02-25 15:27:00,48.8,45.1,30.10,ENE,64,1.5,5.0,87,0.00,SCT,,0.00,98.0,WeatherDisplay:10.37,2013-02-25 14:27:00,
2013-02-25 15:32:00,48.9,44.9,30.10,East,79,0.6,4.6,86,0.00,SCT,,0.00,67.0,WeatherDisplay:10.37,2013-02-25 14:32:00,
2013-02-25 15:37:00,49.0,45.3,30.10,East,80,3.4,5.0,87,0.00,BKN,,0.00,65.0,WeatherDisplay:10.37,2013-02-25 14:37:00,
2013-02-25 15:42:00,49.1,45.1,30.10,East,91,1.2,4.6,86,0.00,BKN,,0.00,47.0,WeatherDisplay:10.37,2013-02-25 14:42:00,
2013-02-25 15:47:00,49.1,45.1,30.10,East,93,2.4,7.0,86,0.00,BKN,,0.00,49.0,WeatherDisplay:10.37,2013-02-25 14:47:00,
2013-02-25 15:52:00,49.1,45.1,30.10,ENE,78,1.9,5.0,86,0.00,BKN,,0.00,54.0,WeatherDisplay:10.37,2013-02-25 14:52:00,
2013-02-25 15:57:00,49.2,45.2,30.10,ENE,59,2.8,6.0,86,0.00,BKN,,0.00,62.0,WeatherDisplay:10.37,2013-02-25 14:57:00,
2013-02-25 16:02:00,49.2,45.2,30.10,ENE,67,2.1,4.0,86,0.00,BKN,,0.00,47.0,WeatherDisplay:10.37,2013-02-25 15:02:00,
2013-02-25 16:07:00,49.2,45.2,30.10,East,88,2.4,5.8,86,0.00,BKN,,0.00,39.0,WeatherDisplay:10.37,2013-02-25 15:07:00,
2013-02-25 16:12:00,49.2,45.2,30.10,East,90,0.2,4.6,86,0.00,BKN,,0.00,25.0,WeatherDisplay:10.37,2013-02-25 15:12:00,
2013-02-25 16:17:00,49.2,45.2,30.10,ENE,78,0.7,2.3,86,0.00,BKN,,0.00,25.0,WeatherDisplay:10.37,2013-02-25 15:17:00,
2013-02-25 16:22:00,49.2,45.2,30.10,East,81,2.6,6.9,86,0.00,BKN,,0.00,19.0,WeatherDisplay:10.37,2013-02-25 15:22:00,
2013-02-25 16:27:00,49.2,45.2,30.10,East,80,2.1,5.0,86,0.00,BKN,,0.00,11.0,WeatherDisplay:10.37,2013-02-25 15:27:00,
2013-02-25 16:32:00,49.2,45.2,30.11,East,80,1.1,4.6,86,0.00,BKN,,0.00,11.0,WeatherDisplay:10.37,2013-02-25 15:32:00,
2013-02-25 16:37:00,49.1,45.1,30.11,East,90,0.0,0.0,86,0.00,BKN,,0.00,12.0,WeatherDisplay:10.37,2013-02-25 15:37:00,
2013-02-25 16:42:00,49.1,45.4,30.11,East,82,0.0,0.0,87,0.00,BKN,,0.00,12.0,WeatherDisplay:10.37,2013-02-25 15:42:00,
2013-02-25 16:47:00,49.0,45.3,30.11,East,83,0.0,0.0,87,0.00,BKN,,0.00,11.0,WeatherDisplay:10.37,2013-02-25 15:47:00,
2013-02-25 16:52:00,49.0,45.3,30.11,ESE,111,0.0,2.3,87,0.00,BKN,,0.00,7.0,WeatherDisplay:10.37,2013-02-25 15:52:00,
2013-02-25 16:57:00,49.0,45.3,30.11,ESE,111,0.1,1.1,87,0.00,BKN,,0.00,0.0,WeatherDisplay:10.37,2013-02-25 15:57:00,
2013-02-25 17:02:00,48.9,45.2,30.11,ESE,111,0.0,1.1,87,0.00,BKN,,0.00,0.0,WeatherDisplay:10.37,2013-02-25 16:02:00,
2013-02-25 17:07:00,48.9,45.2,30.11,ESE,111,0.0,0.0,87,0.00,BKN,,0.00,0.0,WeatherDisplay:10.37,2013-02-25 16:07:00,
2013-02-25 17:12:00,48.8,45.4,30.11,ESE,111,0.0,1.1,88,0.00,BKN,,0.00,0.0,WeatherDisplay:10.37,2013-02-25 16:12:00,
2013-02-25 17:17:00,48.8,45.4,30.11,ESE,111,0.1,1.0,88,0.00,BKN,,0.00,0.0,WeatherDisplay:10.37,2013-02-25 16:17:00,
2013-02-25 17:22:00,48.8,45.4,30.11,ESE,111,0.0,0.0,88,0.00,BKN,,0.00,0.0,WeatherDisplay:10.37,2013-02-25 16:22:00,
2013-02-25 17:27:00,48.8,45.4,30.12,ESE,111,0.0,0.0,88,0.00,BKN,,0.00,0.0,WeatherDisplay:10.37,2013-02-25 16:27:00,
2013-02-25 17:32:00,48.7,45.3,30.12,ESE,111,0.0,0.0,88,0.00,BKN,,0.00,0.0,WeatherDisplay:10.37,2013-02-25 16:32:00,
2013-02-25 17:37:00,48.6,45.2,30.12,ESE,111,0.0,0.0,88,0.00,BKN,,0.00,0.0,WeatherDisplay:10.37,2013-02-25 16:37:00,
2013-02-25 17:42:00,48.6,45.2,30.12,ESE,111,0.0,1.0,88,0.00,BKN,,0.00,0.0,WeatherDisplay:10.37,2013-02-25 16:42:00,
2013-02-25 17:47:00,48.5,45.4,30.12,ESE,111,0.6,2.0,89,0.00,BKN,,0.00,0.0,WeatherDisplay:10.37,2013-02-25 16:47:00,
2013-02-25 17:52:00,48.4,45.3,30.12,ESE,111,0.0,1.1,89,0.00,BKN,,0.00,0.0,WeatherDisplay:10.37,2013-02-25 16:52:00,
2013-02-25 17:57:00,48.4,45.3,30.13,ESE,111,0.0,0.0,89,0.00,BKN,,0.00,0.0,WeatherDisplay:10.37,2013-02-25 16:57:00,
2013-02-25 18:02:00,48.4,45.3,30.13,ESE,111,0.0,1.1,89,0.00,BKN,,0.00,0.0,WeatherDisplay:10.37,2013-02-25 17:02:00,
2013-02-25 18:07:00,48.3,45.2,30.12,ESE,111,0.2,1.0,89,0.00,BKN,,0.00,0.0,WeatherDisplay:10.37,2013-02-25 17:07:00,
2013-02-25 18:12:00,48.3,45.2,30.13,ENE,63,1.8,3.0,89,0.00,BKN,,0.00,0.0,WeatherDisplay:10.37,2013-02-25 17:12:00,
2013-02-25 18:17:00,48.3,45.5,30.13,NE,42,0.8,3.5,90,0.00,BKN,,0.00,0.0,WeatherDisplay:10.37,2013-02-25 17:17:00,
2013-02-25 18:23:00,48.3,45.5,30.13,East,85,1.2,3.5,90,0.00,BKN,,0.00,0.0,WeatherDisplay:10.37,2013-02-25 17:23:00,
2013-02-25 18:28:00,48.3,45.5,30.13,ENE,73,0.9,3.5,90,0.00,BKN,,0.00,0.0,WeatherDisplay:10.37,2013-02-25 17:28:00,
2013-02-25 18:33:00,48.4,45.6,30.13,East,87,1.0,5.8,90,0.00,BKN,,0.00,0.0,WeatherDisplay:10.37,2013-02-25 17:33:00,
2013-02-25 18:38:00,48.4,45.6,30.13,ENE,78,2.7,5.0,90,0.00,BKN,,0.00,0.0,WeatherDisplay:10.37,2013-02-25 17:38:00,
2013-02-25 18:43:00,48.5,46.0,30.13,East,87,1.5,4.6,91,0.00,BKN,,0.00,0.0,WeatherDisplay:10.37,2013-02-25 17:43:00,
2013-02-25 18:48:00,48.6,46.1,30.13,ENE,63,6.6,10.0,91,0.00,BKN,,0.00,0.0,WeatherDisplay:10.37,2013-02-25 17:48:00,
2013-02-25 18:53:00,48.6,46.1,30.13,ESE,108,1.9,5.8,91,0.00,BKN,,0.00,0.0,WeatherDisplay:10.37,2013-02-25 17:53:00,
2013-02-25 18:58:00,48.7,46.2,30.13,ENE,76,1.8,5.0,91,0.00,BKN,,0.00,0.0,WeatherDisplay:10.37,2013-02-25 17:58:00,
2013-02-25 19:03:00,48.7,46.2,30.13,ENE,77,3.8,8.1,91,0.00,BKN,,0.00,0.0,WeatherDisplay:10.37,2013-02-25 18:03:00,
2013-02-25 19:08:00,48.7,46.2,30.12,ENE,66,3.1,5.8,91,0.00,BKN,,0.00,0.0,WeatherDisplay:10.37,2013-02-25 18:08:00,
2013-02-25 19:13:00,48.6,46.1,30.13,ENE,71,2.2,5.8,91,0.00,BKN,,0.00,0.0,WeatherDisplay:10.37,2013-02-25 18:13:00,
2013-02-25 19:19:00,48.5,46.0,30.13,ENE,71,1.9,4.0,91,0.00,BKN,,0.00,0.0,WeatherDisplay:10.37,2013-02-25 18:19:00,
2013-02-25 19:24:00,48.4,45.9,30.13,East,83,1.1,3.5,91,0.00,BKN,,0.00,0.0,WeatherDisplay:10.37,2013-02-25 18:24:00,
2013-02-25 19:29:00,48.3,45.8,30.13,ENE,78,0.2,3.5,91,0.00,BKN,,0.00,0.0,WeatherDisplay:10.37,2013-02-25 18:29:00,
2013-02-25 19:34:00,48.1,45.6,30.13,ENE,57,1.0,4.0,91,0.00,BKN,,0.00,0.0,WeatherDisplay:10.37,2013-02-25 18:34:00,
2013-02-25 19:39:00,48.0,45.5,30.13,ENE,63,0.1,1.1,91,0.00,BKN,,0.00,0.0,WeatherDisplay:10.37,2013-02-25 18:39:00,
2013-02-25 19:44:00,47.8,45.3,30.13,ENE,63,0.5,2.3,91,0.00,BKN,,0.00,0.0,WeatherDisplay:10.37,2013-02-25 18:44:00,
2013-02-25 19:49:00,47.6,45.1,30.12,North,5,2.4,4.0,91,0.00,BKN,,0.00,0.0,WeatherDisplay:10.37,2013-02-25 18:49:00,
2013-02-25 19:54:00,47.3,44.8,30.12,North,5,1.0,2.0,91,0.00,BKN,,0.00,0.0,WeatherDisplay:10.37,2013-02-25 18:54:00,
2013-02-25 19:59:00,47.2,44.7,30.13,North,11,0.1,1.0,91,0.00,BKN,,0.00,0.0,WeatherDisplay:10.37,2013-02-25 18:59:00,
2013-02-25 20:04:00,47.0,44.5,30.13,NE,38,1.2,3.5,91,0.00,BKN,,0.00,0.0,WeatherDisplay:10.37,2013-02-25 19:04:00,
2013-02-25 20:09:00,47.0,44.5,30.13,NNE,30,0.3,1.0,91,0.00,BKN,,0.00,0.0,WeatherDisplay:10.37,2013-02-25 19:09:00,
2013-02-25 20:14:00,46.9,44.7,30.13,NNE,30,0.2,2.3,92,0.00,BKN,,0.00,0.0,WeatherDisplay:10.37,2013-02-25 19:14:00,
2013-02-25 20:19:00,46.9,44.7,30.13,NNE,30,0.0,0.0,92,0.00,BKN,,0.00,0.0,WeatherDisplay:10.37,2013-02-25 19:19:00,
2013-02-25 20:24:00,46.9,44.7,30.13,NNE,30,0.8,2.3,92,0.00,BKN,,0.00,0.0,WeatherDisplay:10.37,2013-02-25 19:24:00,
2013-02-25 20:29:00,46.9,44.4,30.12,NNE,30,0.4,2.0,91,0.00,BKN,,0.00,0.0,WeatherDisplay:10.37,2013-02-25 19:29:00,
2013-02-25 20:34:00,46.8,44.3,30.12,NNE,30,0.1,1.1,91,0.00,BKN,,0.00,0.0,WeatherDisplay:10.37,2013-02-25 19:34:00,
2013-02-25 20:39:00,46.7,44.2,30.12,NNE,30,0.0,0.0,91,0.00,BKN,,0.00,0.0,WeatherDisplay:10.37,2013-02-25 19:39:00,
2013-02-25 20:44:00,46.6,44.1,30.13,NNE,30,0.0,0.0,91,0.00,BKN,,0.00,0.0,WeatherDisplay:10.37,2013-02-25 19:44:00,
2013-02-25 20:49:00,46.4,43.9,30.13,NNE,30,0.0,0.0,91,0.00,BKN,,0.00,0.0,WeatherDisplay:10.37,2013-02-25 19:49:00,
2013-02-25 20:54:00,46.2,43.7,30.13,NNE,31,0.0,0.0,91,0.00,BKN,,0.00,0.0,WeatherDisplay:10.37,2013-02-25 19:54:00,
2013-02-25 20:59:00,45.9,43.4,30.12,NNE,30,0.9,3.5,91,0.00,BKN,,0.00,0.0,WeatherDisplay:10.37,2013-02-25 19:59:00,
2013-02-25 21:04:00,45.7,43.2,30.13,NNE,30,0.0,0.0,91,0.00,BKN,,0.00,0.0,WeatherDisplay:10.37,2013-02-25 20:04:00,
2013-02-25 21:09:00,45.5,43.0,30.13,NNE,30,0.0,0.0,91,0.00,BKN,,0.00,0.0,WeatherDisplay:10.37,2013-02-25 20:09:00,
2013-02-25 21:14:00,45.2,42.7,30.13,NNE,30,0.0,0.0,91,0.00,BKN,,0.00,0.0,WeatherDisplay:10.37,2013-02-25 20:14:00,
2013-02-25 21:19:00,44.9,42.4,30.12,NNE,30,0.1,1.0,91,0.00,BKN,,0.00,0.0,WeatherDisplay:10.37,2013-02-25 20:19:00,
2013-02-25 21:24:00,44.6,42.1,30.12,NNE,30,0.3,1.1,91,0.00,BKN,,0.00,0.0,WeatherDisplay:10.37,2013-02-25 20:24:00,
2013-02-25 21:29:00,44.4,42.2,30.12,NNE,30,0.0,0.0,92,0.00,BKN,,0.00,0.0,WeatherDisplay:10.37,2013-02-25 20:29:00,
2013-02-25 21:34:00,44.2,41.7,30.13,NNE,30,0.0,0.0,91,0.00,BKN,,0.00,0.0,WeatherDisplay:10.37,2013-02-25 20:34:00,
2013-02-25 21:39:00,43.8,41.3,30.12,NNE,30,0.0,0.0,91,0.00,BKN,,0.00,0.0,WeatherDisplay:10.37,2013-02-25 20:39:00,
2013-02-25 21:44:00,43.5,41.0,30.12,NNE,30,0.0,0.0,91,0.00,BKN,,0.00,0.0,WeatherDisplay:10.37,2013-02-25 20:44:00,
2013-02-25 21:49:00,43.1,40.7,30.13,NNE,30,0.0,0.0,91,0.00,BKN,,0.00,0.0,WeatherDisplay:10.37,2013-02-25 20:49:00,
2013-02-25 21:54:00,42.8,40.4,30.12,NNE,30,0.0,0.0,91,0.00,BKN,,0.00,0.0,WeatherDisplay:10.37,2013-02-25 20:54:00,
2013-02-25 21:59:00,42.5,40.3,30.12,NNE,30,0.0,0.0,92,0.00,BKN,,0.00,0.0,WeatherDisplay:10.37,2013-02-25 20:59:00,
2013-02-25 22:04:00,42.2,40.0,30.12,NNE,30,0.0,0.0,92,0.00,BKN,,0.00,0.0,WeatherDisplay:10.37,2013-02-25 21:04:00,
2013-02-25 22:09:00,42.0,39.8,30.11,NNE,30,0.4,2.3,92,0.00,BKN,,0.00,0.0,WeatherDisplay:10.37,2013-02-25 21:09:00,
2013-02-25 22:14:00,42.0,40.1,30.11,NNE,30,0.0,0.0,93,0.00,BKN,,0.00,0.0,WeatherDisplay:10.37,2013-02-25 21:14:00,
2013-02-25 22:19:00,42.0,40.1,30.11,NNE,30,0.0,0.0,93,0.00,BKN,,0.00,0.0,WeatherDisplay:10.37,2013-02-25 21:19:00,
2013-02-25 22:24:00,42.0,40.1,30.11,NNE,30,0.0,0.0,93,0.00,BKN,,0.00,0.0,WeatherDisplay:10.37,2013-02-25 21:24:00,
2013-02-25 22:29:00,42.0,40.1,30.11,NNE,30,0.0,0.0,93,0.00,BKN,,0.00,0.0,WeatherDisplay:10.37,2013-02-25 21:29:00,
2013-02-25 22:34:00,41.9,40.0,30.11,NNE,30,0.0,0.0,93,0.00,BKN,,0.00,0.0,WeatherDisplay:10.37,2013-02-25 21:34:00,
2013-02-25 22:39:00,41.9,40.0,30.11,NNE,30,0.0,0.0,93,0.00,BKN,,0.00,0.0,WeatherDisplay:10.37,2013-02-25 21:39:00,
2013-02-25 22:44:00,41.8,39.9,30.11,NNE,30,0.0,0.0,93,0.00,BKN,,0.00,0.0,WeatherDisplay:10.37,2013-02-25 21:44:00,
2013-02-25 22:49:00,41.7,39.8,30.11,NNE,30,0.0,0.0,93,0.00,BKN,,0.00,0.0,WeatherDisplay:10.37,2013-02-25 21:49:00,
2013-02-25 22:54:00,41.7,40.1,30.11,NNE,30,0.0,0.0,94,0.00,BKN,,0.00,0.0,WeatherDisplay:10.37,2013-02-25 21:54:00,
2013-02-25 22:59:00,41.7,40.1,30.11,NNE,30,0.1,1.1,94,0.00,BKN,,0.00,0.0,WeatherDisplay:10.37,2013-02-25 21:59:00,
2013-02-25 23:04:00,41.8,40.2,30.11,NNE,30,0.0,1.1,94,0.00,BKN,,0.00,0.0,WeatherDisplay:10.37,2013-02-25 22:04:00,
2013-02-25 23:09:00,42.0,40.4,30.11,NNE,30,0.3,2.3,94,0.00,BKN,,0.00,0.0,WeatherDisplay:10.37,2013-02-25 22:09:00,
2013-02-25 23:14:00,42.1,40.5,30.11,NNE,30,0.4,2.3,94,0.00,BKN,,0.00,0.0,WeatherDisplay:10.37,2013-02-25 22:14:00,
2013-02-25 23:19:00,42.3,40.7,30.11,NNE,30,0.0,0.0,94,0.00,BKN,,0.00,0.0,WeatherDisplay:10.37,2013-02-25 22:19:00,
2013-02-25 23:24:00,42.4,40.8,30.11,NNE,30,0.0,0.0,94,0.00,BKN,,0.00,0.0,WeatherDisplay:10.37,2013-02-25 22:24:00,
2013-02-25 23:29:00,42.4,41.1,30.11,NNE,30,0.7,2.3,95,0.00,BKN,,0.00,0.0,WeatherDisplay:10.37,2013-02-25 22:29:00,
2013-02-25 23:34:00,42.5,41.2,30.11,NNE,30,2.1,3.5,95,0.00,BKN,,0.00,0.0,WeatherDisplay:10.37,2013-02-25 22:34:00,
2013-02-25 23:39:00,42.6,41.3,30.10,NNE,31,1.6,2.3,95,0.00,BKN,,0.00,0.0,WeatherDisplay:10.37,2013-02-25 22:39:00,
2013-02-25 23:44:00,42.7,41.4,30.10,NNE,30,0.1,1.1,95,0.00,BKN,,0.00,0.0,WeatherDisplay:10.37,2013-02-25 22:44:00,
2013-02-25 23:49:00,42.8,41.5,30.10,NNE,30,0.3,2.3,95,0.00,BKN,,0.00,0.0,WeatherDisplay:10.37,2013-02-25 22:49:00,
2013-02-25 23:54:00,42.8,41.5,30.10,NNE,30,1.6,3.5,95,0.00,BKN,,0.00,0.0,WeatherDisplay:10.37,2013-02-25 22:54:00,
2013-02-25 23:59:00,42.8,41.5,30.10,NNE,30,0.3,2.3,95,0.00,BKN,,0.00,0.0,WeatherDisplay:10.37,2013-02-25 22:59:00,